Temp
24 23 22 22 22 21 21 20 19 20 19 19 20 20 20 20 20 20 20 20 20 20 20 20 21 21 21 21 21 21 21 21 21 22 23 23 23 23 23 23 23 23 24 24 24 24 24 24 24 24 24 24 23 23 23 23 23 23 22 22 22 22 22
23 23 22 22 22 21 20 20 19 19 19 19 19 20 20 20 20 20 20 20 20 20 20 20 21 21 21 21 21 21 21 22 22 23 23 23 23 23 23 23 23 23 23 24 24 24 24 24 24 24 24 23 23 23 23 23 23 22 22 22 22 22 22
23 23 22 22 22 21 20 19 19 19 19 19 19 20 20 20 21 21 20 20 20 20 21 21 21 21 21 21 21 21 22 22 23 23 23 23 23 23 23 23 23 23 23 24 23 23 23 23 23 23 23 23 23 23 22 22 22 22 22 22 22 22 22
23 23 22 21 21 21 20 19 19 19 19 20 20 20 20 20 21 20 20 20 21 20 21 21 21 21 21 21 22 22 22 23 23 23 23 23 23 23 23 23 23 23 23 23 23 23 23 23 23 23 23 23 22 22 22 22 22 22 22 22 22 22 22
23 22 22 21 21 21 20 20 19 20 20 20 20 20 20 20 21 20 20 21 21 20 21 21 21 21 22 22 22 23 23 23 23 23 23 23 23 23 23 23 23 23 23 23 23 23 23 23 23 23 23 22 22 22 22 22 22 22 22 22 22 22 21
23 23 22 21 21 21 20 20 20 20 20 20 20 20 20 21 21 21 21 21 21 21 21 21 22 22 22 22 23 23 23 23 23 23 23 23 23 23 23 23 23 23 23 23 23 23 23 23 23 22 22 22 22 22 22 22 22 22 21 21 21 21 21
23 23 22 21 21 21 20 20 20 20 20 20 20 21 21 21 21 21 21 21 21 22 22 22 22 22 23 23 23 23 23 23 22 23 23 22 23 23 23 23 23 23 23 23 23 23 23 22 22 22 22 22 22 22 22 22 21 21 21 21 21 21 21
23 23 22 21 21 21 20 20 20 20 20 20 21 21 21 21 21 21 21 21 22 22 22 22 23 23 23 23 23 23 23 23 22 22 22 22 23 23 23 23 23 23 23 23 23 23 22 22 22 22 21 21 21 21 21 21 21 21 21 21 21 21 21
23 23 22 21 21 21 21 21 21 21 20 20 21 21 21 21 21 21 21 22 22 22 22 23 23 23 23 23 23 23 23 23 23 22 22 22 22 23 23 23 23 23 23 23 22 22 22 21 21 21 21 21 21 21 21 21 20 20 20 20 20 20 20
23 23 22 22 21 21 21 21 21 21 20 20 20 21 20 21 21 21 21 22 22 22 23 23 23 23 23 23 23 23 23 23 23 22 22 22 22 23 23 23 23 23 22 22 22 22 21 21 21 21 21 20 20 20 20 20 20 20 20 20 20 20 20
23 22 22 22 22 21 21 21 21 21 20 20 20 20 20 21 21 21 22 22 23 23 23 23 23 23 23 23 23 23 23 23 23 22 22 22 22 22 23 23 22 22 22 22 21 21 21 21 20 20 20 20 20 20 20 20 20 20 20 20 20 20 20
23 22 22 22 22 21 21 21 21 21 20 20 20 20 20 21 21 22 22 22 23 23 23 23 23 23 23 23 23 23 23 23 23 22 22 22 22 22 22 22 22 22 22 21 21 21 21 20 20 20 20 20 20 20 20 20 20 20 20 20 20 20 20
23 22 22 22 22 21 21 21 21 20 20 21 21 21 21 21 22 22 22 22 23 23 23 23 23 23 23 23 23 23 23 23 23 23 22 22 22 22 22 22 22 21 21 21 21 21 20 20 20 20 20 20 20 20 20 20 20 20 20 20 20 20 20
23 22 22 22 22 22 22 22 21 20 20 21 21 21 21 22 22 22 22 23 23 23 23 23 23 23 23 23 23 23 23 23 23 23 22 22 22 22 22 22 21 21 21 21 21 21 20 20 20 20 20 20 20 20 20 20 20 20 20 20 20 19 19
23 22 22 22 22 22 22 22 22 21 20 21 21 21 21 22 22 22 22 23 23 23 23 23 23 23 23 23 23 23 23 23 23 23 22 22 22 22 22 22 21 21 21 21 21 21 20 20 20 20 20 20 20 20 20 20 20 20 19 19 19 19 19
23 22 22 22 22 22 22 22 22 20 20 20 21 21 21 21 22 22 22 22 23 23 23 23 23 23 23 23 23 23 23 23 23 23 22 22 22 22 22 21 21 21 21 21 20 20 20 20 20 20 20 20 19 19 19 19 19 19 19 19 19 19 19
23 22 22 22 22 22 22 22 21 20 20 20 21 21 21 21 22 22 22 22 23 23 23 23 23 23 23 23 23 23 23 23 23 23 22 22 22 22 22 21 21 21 21 21 20 20 20 20 20 19 19 19 19 19 19 19 19 19 19 18 18 18 18
23 22 22 22 22 22 22 22 21 20 20 20 21 21 21 21 21 21 22 23 23 23 23 23 23 23 23 23 23 23 23 23 23 23 22 22 22 22 21 21 21 21 20 20 20 20 20 19 19 19 19 19 19 19 19 19 19 18 18 18 18 18 18
23 23 23 23 22 22 22 22 21 21 21 21 21 21 22 22 22 22 22 23 23 23 23 23 23 23 23 23 23 22 22 22 22 22 22 22 21 21 21 20 21 21 20 20 20 20 20 19 20 20 19 19 19 19 19 19 18 18 18 18 18 18 18
23 23 23 22 23 23 22 21 21 21 21 22 22 22 22 22 22 23 23 23 23 23 23 23 23 23 22 22 21 21 21 21 21 21 20 20 20 19 19 19 20 20 20 20 20 19 20 20 20 20 19 19 19 19 19 19 19 18 18 18 18 18 18
23 23 23 23 23 23 22 21 21 22 22 22 22 22 22 22 22 22 23 23 23 23 23 23 22 22 21 20 21 22 22 21 21 21 20 19 19 19 19 19 19 19 20 20 20 20 20 20 20 20 19 19 19 19 19 19 19 19 18 18 18 18 18
23 23 23 23 23 23 22 22 22 23 23 23 22 22 23 23 22 22 23 23 23 23 23 22 21 20 21 21 21 22 21 20 20 20 19 19 18 18 19 20 19 19 20 20 20 20 20 20 20 20 20 19 19 19 19 19 19 18 18 18 18 18 18
23 23 23 23 23 23 23 23 24 23 23 23 23 23 23 23 23 22 22 22 22 22 22 21 20 20 21 21 20 20 19 19 19 19 19 19 19 19 20 20 19 20 20 20 20 20 20 20 20 20 19 19 19 19 19 18 18 18 18 18 18 18 18
23 23 23 23 23 23 23 23 23 23 23 23 23 23 23 23 23 22 22 22 22 21 21 20 20 20 20 20 19 19 19 19 18 18 19 19 19 19 20 20 20 20 20 20 20 20 20 20 20 19 19 19 19 18 18 18 18 18 18 18 18 18 18
23 23 23 23 24 24 24 23 23 23 23 23 23 22 23 23 22 22 22 22 21 21 20 19 19 19 20 19 19 20 20 19 19 19 19 19 19 20 20 20 20 20 20 20 20 20 19 19 19 19 19 19 18 18 18 18 18 18 18 18 18 18 18
23 22 23 23 23 24 24 23 23 23 23 23 23 22 22 22 22 22 22 22 21 20 19 18 19 20 20 19 19 19 19 20 20 20 19 19 20 20 20 20 20 20 20 20 19 19 19 19 19 19 19 18 18 18 18 18 18 18 18 18 18 18 18
23 23 23 23 23 23 23 23 23 23 22 22 22 22 22 22 22 22 22 21 20 19 18 18 20 21 19 19 19 19 19 20 20 20 20 20 20 20 20 20 20 20 20 19 19 19 19 19 19 18 18 18 18 18 18 18 18 18 18 18 18 18 18
22 22 22 23 23 23 22 22 22 22 22 22 22 22 22 22 22 21 21 20 20 19 18 19 20 20 19 19 20 20 20 20 20 20 20 19 19 20 20 20 20 19 19 19 19 19 19 19 18 18 18 18 18 18 18 18 18 18 18 18 18 18 18
22 21 21 21 22 22 22 21 20 21 21 21 22 22 22 22 22 21 20 20 20 19 19 20 20 19 19 20 20 20 20 20 20 20 19 19 20 20 20 20 19 19 19 19 19 19 18 18 18 18 18 18 18 18 18 18 18 18 18 18 18 18 17
21 20 20 20 20 21 21 20 19 20 20 21 21 22 22 22 22 21 20 20 20 19 19 20 20 20 20 20 20 20 20 20 20 19 19 19 20 20 19 19 19 19 19 19 18 18 18 18 18 18 18 18 18 18 18 18 18 18 18 18 17 17 17
20 19 19 19 19 20 20 20 19 19 20 20 21 21 21 22 22 21 20 20 20 20 20 20 20 20 20 20 20 20 20 20 19 19 19 19 19 19 19 19 19 19 18 18 18 18 18 18 18 18 18 18 17 18 18 18 18 18 18 17 17 16 16
19 19 19 19 19 20 20 19 19 19 19 19 20 21 21 21 21 21 20 19 20 20 20 20 20 20 20 20 20 20 20 20 19 19 19 19 19 19 19 19 18 18 18 18 18 18 18 18 18 18 18 17 17 17 18 18 18 17 17 17 17 16 16
18 18 18 18 18 19 19 19 18 18 18 19 19 20 21 21 21 20 20 20 20 20 20 20 20 20 20 20 20 20 20 20 19 19 19 19 19 19 18 18 18 18 18 18 18 18 18 18 18 17 17 17 17 17 17 17 17 17 16 16 16 15 15
18 18 18 18 18 19 19 18 18 18 18 18 19 20 20 20 20 20 20 20 20 20 20 20 20 20 20 20 20 20 19 19 19 19 19 19 18 18 18 18 18 18 18 18 18 18 18 18 17 17 16 16 16 16 16 16 16 16 15 15 15 14 14
18 18 18 18 19 19 19 18 18 18 18 18 19 20 20 20 20 20 21 21 20 20 21 20 20 20 20 20 19 19 19 19 19 19 18 18 18 18 18 18 18 18 18 18 18 18 17 17 17 17 17 17 16 16 16 15 15 15 15 15 14 14 14
18 18 18 18 19 19 19 19 19 19 19 19 20 20 20 20 21 21 21 21 21 21 21 20 20 20 19 19 19 19 19 19 19 18 18 18 18 18 18 18 18 18 18 18 18 18 17 17 17 17 17 17 16 16 15 15 15 15 15 15 14 14 13
18 18 18 19 19 19 18 19 19 20 19 20 21 21 21 21 21 21 21 21 21 21 20 20 20 19 19 19 19 19 19 19 18 18 18 18 18 18 18 18 18 18 18 18 18 18 18 17 17 18 17 17 16 16 16 15 15 15 15 14 14 13 13
18 18 19 19 19 19 18 19 19 20 20 20 21 21 21 21 21 21 21 20 20 20 20 20 20 19 19 19 19 19 19 18 18 18 18 18 18 18 18 18 18 18 18 19 18 18 18 18 18 18 17 17 16 16 16 15 15 15 15 14 14 13 13
Height
764 767 770 771 774 776 777 779 781 782 783 785 786 787 788 789 790 791 792 794 795 796 798 799 800 801 803 804 804 805 806 807 808 808 809 809 810 811 811 812 812 813 814 814 815 815 815 816 816 817 817 817 818 818 818 818 818 818 818 818 818 818 817
764 767 769 771 773 775 777 779 780 782 783 785 786 787 788 788 789 791 792 794 795 797 798 799 801 802 804 804 805 806 807 808 808 809 810 810 811 811 812 813 813 814 814 814 815 815 816 816 817 817 817 818 818 818 818 818 818 818 818 817 817 817 817
765 767 768 770 771 774 777 778 780 782 783 784 785 787 788 788 789 791 792 794 796 798 799 800 802 803 804 805 806 806 807 808 809 810 810 811 812 812 812 813 813 814 814 814 815 815 816 816 816 817 817 817 817 817 818 818 818 818 817 817 817 816 816
765 766 768 770 771 773 776 777 780 781 782 783 784 786 787 788 790 791 793 795 797 798 799 801 802 803 805 805 806 807 808 809 810 810 811 811 812 812 812 813 813 814 814 814 815 815 816 816 816 816 817 817 817 817 817 817 817 817 817 816 816 816 816
766 767 769 771 772 774 775 777 780 781 782 783 784 786 788 789 791 792 794 796 797 799 800 801 803 804 805 806 806 808 808 809 810 810 811 812 812 812 812 813 813 813 814 814 815 815 815 816 816 816 816 816 817 816 817 817 816 816 816 816 816 815 815
767 768 770 771 772 774 775 777 779 780 782 783 784 787 788 790 792 793 795 797 798 800 801 802 803 804 805 806 807 808 808 809 810 810 811 811 812 812 812 812 813 813 814 814 815 815 815 816 816 816 816 816 816 816 816 816 815 815 815 815 815 814 814
766 768 770 771 772 773 775 777 779 780 782 784 785 788 789 791 793 794 796 797 798 800 801 802 803 804 806 806 807 808 808 809 810 810 811 811 811 812 812 812 812 813 814 814 815 815 815 815 815 815 816 815 815 815 815 815 814 814 814 813 813 813 813
765 767 769 771 772 773 775 776 778 780 782 784 786 788 790 792 794 794 796 797 798 800 801 802 803 804 805 806 807 808 808 808 809 809 810 810 811 811 811 812 812 813 813 814 814 814 814 815 815 815 815 815 815 814 814 814 813 813 813 812 812 812 812
765 767 768 770 771 772 774 775 778 780 782 785 787 788 791 792 793 795 795 797 798 799 800 802 803 804 805 806 806 807 807 808 808 809 809 810 810 811 811 812 812 813 813 813 814 814 814 814 814 814 814 814 814 813 813 813 812 812 812 811 811 811 810
766 768 769 771 772 773 775 776 778 781 783 786 787 789 791 792 793 795 795 797 798 799 801 802 803 804 804 805 806 806 807 807 808 809 809 810 810 811 811 812 812 812 813 813 813 813 813 813 813 813 813 813 813 813 812 812 812 811 811 810 810 809 809
766 768 768 771 772 774 776 777 779 782 784 786 787 789 791 791 793 794 795 797 798 799 800 801 802 803 804 805 806 806 807 808 809 809 810 810 811 811 811 812 812 813 813 813 813 813 813 813 813 813 813 812 812 812 812 811 811 810 809 809 808 808 808
765 767 767 770 771 773 776 778 780 782 783 785 786 788 790 791 793 794 795 796 797 798 800 800 802 803 804 805 806 806 808 808 809 809 810 811 811 811 812 812 813 813 813 814 814 813 813 813 813 813 812 812 811 811 811 810 810 809 808 808 807 807 806
764 765 766 768 770 773 775 777 779 781 782 784 786 787 789 790 792 793 794 795 796 798 799 800 801 802 803 805 806 807 808 808 809 810 811 811 812 812 813 813 813 814 814 814 813 813 813 813 813 812 812 811 811 810 810 809 809 808 807 807 806 806 805
764 765 767 768 770 772 774 776 778 780 782 783 785 786 788 789 791 792 793 795 796 798 799 800 801 802 803 805 805 806 807 808 810 811 812 812 813 813 813 814 814 813 813 813 813 813 813 812 812 812 811 811 810 810 809 808 808 807 807 806 805 805 804
764 766 767 769 771 772 773 774 776 778 781 782 784 786 787 788 790 791 793 794 796 797 798 800 801 802 804 805 806 807 808 810 811 812 813 813 813 814 814 814 814 813 813 813 813 812 812 812 811 811 811 810 810 809 808 808 807 806 806 805 804 804 803
763 765 767 768 769 770 771 772 774 777 779 781 783 784 785 787 789 790 792 794 796 797 799 800 801 803 804 805 807 808 809 811 812 812 813 813 814 814 814 814 814 813 813 813 813 812 812 811 811 810 810 810 809 808 807 807 806 805 805 804 803 803 802
762 764 766 766 768 768 769 771 773 776 778 780 781 783 784 786 788 790 792 794 795 797 799 800 802 803 805 806 808 809 810 811 812 812 813 813 813 814 814 814 814 813 813 812 812 812 811 811 810 810 809 809 808 808 807 806 805 805 804 803 803 802 801
761 763 764 765 766 767 768 770 772 775 776 778 780 782 783 785 787 790 791 793 795 797 799 801 802 804 805 807 808 809 810 811 811 812 812 812 813 813 813 813 813 812 812 812 811 811 810 810 810 809 808 808 807 807 806 805 805 804 803 802 801 801 800
759 760 761 763 764 765 767 769 770 773 775 776 778 780 782 784 786 788 790 792 795 797 798 800 801 803 805 806 808 809 810 811 812 812 813 813 813 813 814 814 813 813 812 811 811 810 810 809 809 808 808 807 806 806 805 804 804 803 802 801 800 800 799
756 758 759 761 762 763 764 767 769 772 773 775 777 779 781 784 785 788 790 793 795 796 798 799 800 802 804 806 807 807 808 809 810 811 812 812 812 813 814 815 815 814 813 811 811 810 809 809 808 808 807 806 806 805 804 803 802 801 801 800 799 798 797
755 756 758 760 761 762 764 766 769 771 773 775 777 779 782 783 785 788 790 792 794 795 796 798 800 802 803 804 804 803 803 805 806 807 809 811 811 812 812 813 813 813 813 811 810 809 808 808 808 807 806 806 805 804 803 802 801 800 799 799 798 797 796
753 754 755 756 758 760 762 765 768 769 772 774 777 779 781 783 785 788 789 791 793 794 796 798 800 800 801 801 801 802 803 805 806 807 808 810 812 813 812 811 812 813 812 811 809 809 808 808 807 806 805 804 803 802 801 800 800 799 798 798 797 796 795
748 750 752 753 756 758 760 764 766 768 771 774 776 778 780 782 785 787 789 791 792 793 796 797 798 799 801 802 804 805 808 809 810 811 810 810 811 812 811 810 811 812 811 810 809 808 808 807 806 805 804 803 802 801 800 799 799 798 798 797 796 795 794
747 749 751 753 756 759 761 764 766 769 772 774 776 778 780 782 784 786 788 790 791 793 795 796 798 801 803 805 805 805 806 807 808 810 810 809 810 810 809 809 810 811 810 809 809 808 807 806 805 804 803 802 801 800 799 799 798 798 797 796 795 794 792
748 751 753 755 757 759 761 764 767 770 772 774 776 778 779 781 784 785 787 788 790 792 794 796 800 802 802 803 803 802 802 804 805 807 808 808 808 808 809 809 809 809 809 809 808 807 806 805 804 803 802 801 800 800 799 798 798 797 796 795 794 792 791
749 752 754 756 758 760 762 765 767 769 772 773 775 777 779 781 783 784 786 787 790 792 795 798 801 800 800 802 802 802 803 804 804 805 806 807 807 808 808 809 809 809 808 808 807 806 805 804 803 802 801 801 800 800 799 798 797 796 795 793 792 791 789
750 751 754 756 758 760 763 765 768 770 772 774 775 777 779 780 782 784 785 788 792 794 796 798 799 797 798 800 801 801 802 803 803 805 806 807 807 808 808 808 808 808 807 806 806 805 804 803 802 802 801 800 800 799 798 797 796 794 793 792 790 789 788
750 753 755 757 759 761 764 766 769 771 773 774 776 777 779 780 782 784 786 789 792 794 795 796 796 795 797 799 800 801 802 803 804 805 806 807 807 807 808 807 807 806 806 806 805 804 804 803 802 802 801 800 800 799 797 796 795 793 792 790 789 788 786
751 754 755 757 760 762 764 767 770 772 773 775 777 778 779 781 782 785 787 790 792 794 795 795 795 796 797 799 800 801 802 803 805 805 806 807 807 807 806 806 806 806 805 805 804 804 803 803 802 801 801 800 799 798 796 795 793 792 790 789 787 786 784
753 755 756 758 761 763 765 768 770 773 775 777 778 779 780 781 783 785 788 790 792 794 795 795 796 797 799 800 801 802 803 804 805 805 806 806 806 806 806 806 806 805 805 804 804 803 803 803 802 801 800 799 798 796 795 793 792 790 789 787 785 784 782
755 757 758 760 763 765 767 769 771 774 776 778 779 781 782 783 784 786 788 791 793 794 795 796 798 799 800 801 802 803 804 804 805 805 806 806 806 806 806 806 806 805 805 804 804 804 803 802 801 800 799 798 796 795 793 792 790 789 787 785 783 782 780
757 759 760 762 764 766 769 771 773 776 778 780 781 782 783 784 786 787 789 792 793 795 797 798 799 800 802 803 803 804 804 805 805 806 806 807 807 807 806 806 806 805 805 805 804 804 803 802 801 800 798 797 795 794 792 790 789 787 785 783 781 779 778
759 761 762 764 766 768 770 772 775 777 779 781 783 784 785 786 788 789 791 793 795 796 798 799 800 801 802 803 804 805 805 805 806 806 807 807 807 807 807 806 806 806 805 804 804 803 802 801 800 799 798 796 794 793 791 789 787 785 783 781 779 777 775
761 763 765 767 768 770 771 773 776 779 780 782 784 785 787 788 790 792 793 795 796 798 799 800 802 802 804 804 805 806 806 807 807 807 808 808 808 807 807 807 806 805 805 804 803 802 801 800 799 798 797 795 793 791 789 788 786 784 782 780 777 775 773
763 765 767 769 770 772 773 775 778 779 781 784 785 787 788 790 792 794 795 796 798 799 800 802 803 804 805 806 806 807 807 807 808 808 808 808 808 807 807 806 805 805 804 803 802 801 801 800 799 797 796 794 792 791 788 786 785 783 781 779 777 775 772
764 767 769 770 773 774 775 777 779 780 783 785 787 788 790 791 793 795 796 798 799 800 802 803 804 805 806 806 807 807 807 807 808 808 808 808 807 807 806 806 805 804 803 803 802 801 800 799 797 796 795 793 792 791 789 787 785 783 781 779 776 774 771
765 767 770 772 774 776 778 780 781 782 784 787 788 790 791 793 795 797 798 800 801 802 803 804 805 806 806 807 807 807 807 807 807 807 807 807 807 806 806 805 804 804 803 803 802 801 799 798 797 795 794 793 792 790 789 787 785 782 780 777 775 772 769
767 768 771 773 775 777 780 782 783 785 787 788 790 792 793 795 797 798 799 801 802 803 804 805 805 806 806 807 807 807 807 807 807 807 807 807 806 806 805 805 804 804 803 802 801 800 799 798 797 795 794 793 791 790 788 786 784 781 779 776 773 770 767
Wind_Speed
8 7 7 6 6 5 5 7 10 12 14 16 15 15 16 18 18 17 16 16 16 15 13 12 12 13 11 10 9 8 8 7 6 6 7 8 9 9 8 6 4 4 4 4 4 4 4 3 2 1 2 2 3 4 4 4 4 4 4 5 6 6 5
8 7 6 6 6 5 5 7 10 12 14 15 16 16 16 17 18 17 15 16 16 14 13 12 12 13 11 9 9 9 9 9 9 9 9 10 10 8 6 5 3 3 3 3 3 4 5 4 3 2 1 2 3 4 4 4 3 3 5 6 7 6 6
7 7 7 6 6 6 6 8 9 11 13 15 17 17 17 17 18 17 16 16 15 14 13 12 12 12 10 9 10 10 11 11 11 10 9 9 9 7 5 4 3 3 4 4 6 6 6 4 3 2 3 4 4 4 3 2 3 4 6 7 7 6 6
7 7 7 6 5 5 6 8 10 11 12 14 17 18 17 17 17 17 16 15 15 14 13 12 12 12 11 11 12 13 13 12 10 9 9 8 7 5 5 4 5 6 7 8 8 6 4 2 1 3 4 4 3 2 2 3 4 5 6 6 6 5 6
6 6 6 5 5 5 5 8 10 11 12 13 15 16 15 15 15 15 15 14 13 12 12 12 12 13 13 13 13 13 13 11 10 9 9 8 6 6 6 6 6 7 8 8 7 4 2 1 2 3 3 4 3 2 3 4 5 5 6 6 6 6 6
6 6 6 5 6 5 5 7 10 12 13 14 15 15 14 13 13 14 15 14 12 11 12 13 14 15 15 14 13 12 12 11 10 10 9 7 6 5 5 5 6 8 9 8 6 3 1 1 3 2 2 3 3 2 3 5 6 6 7 8 7 7 8
7 6 6 5 5 5 5 7 11 12 13 14 15 15 14 13 13 14 15 15 14 14 15 15 15 15 15 14 13 12 12 11 10 8 7 7 6 5 5 5 6 8 8 7 5 3 1 1 2 2 2 2 2 3 5 7 7 7 7 7 7 8 9
7 6 6 6 6 5 5 7 11 12 13 14 15 15 15 14 13 14 15 16 16 17 18 17 16 16 16 15 13 11 10 10 9 7 7 8 7 7 7 7 8 9 8 6 4 2 2 3 3 2 2 3 4 5 6 7 7 7 6 6 7 7 8
6 6 5 6 6 5 6 8 10 12 12 13 14 14 14 13 14 15 16 17 18 19 19 17 16 16 15 14 12 11 10 9 8 8 9 9 9 8 8 8 8 8 7 5 4 3 4 4 3 3 4 4 5 5 5 5 5 5 5 6 7 7 8
6 7 6 6 5 4 6 9 9 10 10 11 12 12 13 14 15 16 17 19 19 19 19 17 16 16 14 13 12 12 11 10 10 10 10 9 9 8 7 7 7 7 5 5 4 3 3 2 2 2 2 2 2 3 3 4 4 5 5 5 6 8 8
6 7 7 7 7 6 6 7 7 8 10 11 12 12 14 15 17 17 18 20 19 19 19 18 17 16 15 14 14 13 12 12 12 11 10 10 10 9 7 6 6 5 4 3 3 2 1 0 0 1 1 1 2 3 3 4 5 5 6 7 8 9 10
6 7 8 9 9 8 7 6 7 9 11 12 14 15 15 16 17 18 19 20 19 19 19 19 19 17 16 16 16 15 15 14 14 13 11 10 9 8 7 6 5 4 3 2 1 1 1 1 1 1 2 2 3 4 5 6 6 6 7 8 8 9 9
6 6 7 8 8 8 8 7 7 10 13 14 15 16 17 18 19 19 20 21 20 20 20 21 20 19 18 17 17 17 17 17 16 13 11 9 7 6 6 5 3 2 2 2 1 1 1 1 2 2 3 3 4 5 6 6 6 7 7 8 8 9 9
7 7 7 7 8 9 9 9 8 9 13 15 16 17 18 19 20 21 22 22 21 21 21 21 21 20 19 19 18 18 18 18 16 14 12 10 7 6 6 4 3 2 2 2 1 0 1 1 2 3 4 5 6 6 6 6 7 8 8 9 9 9 9
8 8 8 8 9 9 10 9 8 10 13 15 16 17 18 20 21 22 22 23 22 21 21 21 20 20 19 19 20 18 17 16 15 13 11 9 7 7 6 4 2 2 2 1 1 1 1 1 2 3 5 5 6 6 6 7 8 9 9 9 9 9 10
9 9 9 9 9 9 9 9 9 11 14 15 17 19 20 20 22 22 23 23 22 22 21 20 20 19 19 20 20 17 15 15 14 13 12 10 9 8 6 4 3 2 2 1 1 1 1 1 3 4 5 5 6 6 7 8 8 8 8 8 9 10 10
9 9 9 9 9 9 8 8 9 11 13 16 19 20 21 22 23 23 22 22 22 23 21 20 20 20 20 20 18 16 15 14 14 14 13 11 10 8 6 4 3 2 2 2 2 1 1 2 3 5 5 6 6 7 7 7 7 7 8 8 8 9 9
9 9 9 9 9 9 9 9 9 10 14 17 20 21 22 23 23 22 23 24 24 23 21 20 21 21 20 19 18 17 17 16 16 15 14 12 11 9 7 5 4 3 3 2 1 0 2 3 4 5 6 6 6 7 7 7 6 7 7 8 9 9 10
10 10 10 10 10 10 10 10 11 14 18 20 22 24 25 26 25 25 26 25 23 22 21 21 22 22 21 19 17 15 14 13 13 12 12 11 9 6 4 3 3 3 2 1 0 1 3 4 5 5 6 7 7 7 7 7 7 7 9 11 12 12 12
10 9 9 9 10 10 9 10 13 17 20 22 24 25 26 25 25 25 25 24 23 22 22 22 22 21 18 13 10 10 10 10 10 11 11 9 7 4 0 3 4 4 3 1 1 3 4 4 4 5 6 7 7 8 8 8 8 10 11 13 14 14 14
8 9 9 9 9 8 8 11 13 15 18 21 22 22 22 23 23 22 22 23 23 22 22 22 20 16 11 9 11 15 16 14 13 13 12 8 5 4 1 6 5 4 3 2 3 4 4 3 4 6 7 7 8 8 9 9 10 12 13 14 14 14 14
10 10 9 10 10 10 12 15 17 19 20 20 20 21 22 22 21 20 20 21 22 22 21 18 14 12 12 13 15 16 15 12 9 11 10 6 2 1 5 7 5 5 3 3 3 2 2 4 6 7 8 9 9 9 10 11 12 13 13 13 13 14 14
11 11 11 12 15 16 19 21 21 20 19 18 19 21 21 20 20 19 18 18 20 19 16 14 14 14 14 13 8 6 7 6 5 6 6 4 5 8 9 6 6 5 3 2 1 3 4 6 8 9 11 11 9 10 11 12 12 12 12 12 13 13 14
8 11 11 13 14 15 16 18 17 16 15 15 15 16 17 17 17 17 17 17 17 15 14 14 14 12 10 8 6 7 7 8 7 6 6 8 10 10 6 5 5 4 3 3 4 6 7 9 11 12 12 11 9 9 10 11 11 10 11 12 13 14 15
6 8 10 13 15 15 15 15 14 12 12 13 12 12 12 14 15 15 15 15 14 14 14 13 12 11 13 12 10 11 11 10 7 6 7 8 7 6 4 4 4 3 4 6 8 10 10 11 11 10 9 8 8 8 9 10 11 10 12 14 14 15 16
7 9 10 11 13 14 14 15 14 12 12 12 12 10 10 11 13 14 14 14 12 11 13 15 11 13 16 14 12 11 10 8 6 5 5 5 4 3 4 3 3 5 7 9 10 10 9 8 7 7 7 6 7 8 9 11 13 13 14 15 15 15 16
9 11 12 13 12 12 13 14 13 12 11 11 11 10 9 11 12 12 12 10 8 9 15 16 10 13 15 14 12 10 8 7 5 4 4 4 3 3 4 4 5 7 8 7 6 6 6 5 6 6 6 6 7 9 11 12 13 14 15 15 15 15 15
10 11 12 14 13 14 15 15 14 13 12 10 10 10 10 11 12 12 12 10 8 12 16 12 7 8 11 10 8 6 6 7 7 5 4 4 4 4 4 4 4 4 3 3 4 5 5 6 6 7 7 8 9 11 12 12 12 14 15 15 16 16 16
10 11 13 15 15 15 17 17 15 15 13 11 10 10 11 12 13 14 13 10 10 14 13 9 8 10 10 9 9 9 8 7 6 5 5 4 4 4 3 1 0 1 2 4 5 5 5 6 7 8 10 11 11 12 12 12 13 15 16 16 16 17 17
10 12 14 16 17 17 18 18 17 16 14 12 11 11 11 12 14 16 15 12 13 15 13 12 12 13 11 11 10 9 7 6 5 5 4 4 3 3 2 2 2 3 4 4 4 5 7 8 8 9 10 12 13 14 14 15 17 18 18 17 16 17 18
11 14 16 18 18 18 19 19 19 17 15 13 12 11 11 12 15 17 17 16 16 15 14 14 14 13 12 10 9 7 7 7 7 5 4 4 4 4 2 2 4 4 3 3 4 6 8 7 7 9 11 12 15 16 17 18 19 19 19 18 17 18 19
12 15 17 18 19 20 21 21 20 19 16 13 11 12 12 13 16 19 19 17 16 15 15 15 13 12 11 9 8 8 7 7 7 7 7 6 4 2 3 3 3 2 3 4 5 6 7 6 7 10 12 13 16 17 18 19 19 19 19 19 20 21 22
11 14 16 17 19 21 23 21 19 18 17 15 12 12 13 15 18 19 19 17 16 15 14 13 12 12 11 11 10 10 9 10 11 10 8 5 3 2 2 3 3 4 4 4 5 6 7 8 10 11 13 14 16 17 18 18 18 19 20 22 23 24 24
12 15 16 17 19 21 22 21 19 18 18 17 15 16 18 19 19 18 18 16 15 13 12 12 13 14 15 14 13 12 11 10 10 8 5 3 2 2 3 4 4 5 4 4 6 8 9 10 11 11 12 14 15 16 17 18 19 21 22 23 24 25 26
15 16 17 17 18 21 22 22 21 21 20 19 19 20 21 20 18 17 16 15 13 13 14 16 16 16 15 14 12 11 10 9 7 5 4 3 3 3 4 5 5 5 4 5 7 9 10 10 10 11 12 14 14 15 16 19 21 23 23 23 23 24 26
17 17 18 19 20 21 22 23 23 23 22 21 21 22 21 19 17 15 14 14 14 15 17 18 17 15 14 13 12 11 9 7 6 5 5 4 4 4 4 5 5 5 5 6 9 11 12 11 11 13 15 14 14 15 16 19 22 23 23 23 23 24 25
18 18 19 21 22 22 22 23 24 25 23 22 22 21 20 18 16 15 15 15 16 16 16 17 16 15 13 12 10 8 6 6 7 6 5 4 4 4 4 5 6 5 6 8 10 12 13 13 12 14 15 14 15 17 18 19 21 21 22 22 24 26 26
19 20 21 22 23 23 22 23 24 25 24 23 22 21 19 18 16 16 16 16 15 14 14 14 14 14 12 10 8 7 7 7 7 5 4 4 4 4 4 6 8 8 8 9 9 11 12 11 12 14 14 13 15 18 20 20 21 21 21 23 25 25 26
Wind_Direction
133 134 136 145 156 157 153 153 157 157 159 165 169 172 175 177 179 181 184 188 190 189 190 192 197 199 199 197 194 187 180 174 165 154 143 136 129 126 127 121 105 90 72 61 73 95 100 102 118 190 218 228 242 242 245 254 268 292 323 338 334 327 326
139 140 141 150 160 150 141 151 159 161 161 165 170 173 174 175 176 178 182 186 188 188 186 188 191 192 192 190 183 173 164 157 149 143 134 129 129 131 129 120 105 91 77 77 108 129 129 121 118 134 178 226 238 234 239 255 280 314 335 336 330 327 331
145 148 149 155 163 148 139 150 161 166 167 169 172 175 177 175 175 178 182 183 184 185 181 181 186 187 184 177 168 160 155 150 142 136 131 133 134 131 126 125 123 113 117 136 140 138 139 139 147 188 223 232 233 233 242 274 307 323 329 329 330 333 341
146 147 143 142 144 136 137 148 159 168 173 176 177 178 178 176 176 178 181 180 179 180 177 177 180 179 171 162 157 153 150 146 140 135 138 142 135 126 130 136 133 131 139 148 146 141 144 159 201 222 221 219 230 256 278 296 309 315 319 324 327 330 336
134 131 132 137 140 143 146 149 158 165 171 176 177 177 176 174 176 179 182 181 178 178 175 171 169 165 159 155 152 150 149 148 145 146 150 149 139 127 122 121 127 138 150 157 158 156 155 199 230 227 220 222 240 271 280 283 291 293 294 301 304 306 317
142 143 147 151 153 158 150 148 158 164 167 171 171 173 173 171 175 181 184 184 182 176 168 163 162 159 157 155 153 153 156 156 154 158 163 160 157 147 123 113 126 148 161 170 174 173 168 214 221 220 224 230 241 265 279 283 286 285 285 288 288 291 301
150 150 151 152 152 153 147 150 158 162 166 167 167 169 171 172 178 183 184 184 181 172 164 161 162 162 162 160 160 161 163 164 164 166 168 165 165 161 141 130 141 160 171 175 180 190 205 206 185 156 168 204 248 279 289 292 293 294 294 294 291 291 295
152 148 151 152 148 148 151 156 158 159 163 163 161 165 169 173 179 183 184 181 177 169 164 162 163 165 169 169 168 169 170 173 175 172 166 158 156 152 146 145 151 163 173 178 192 211 184 174 177 175 212 263 283 287 290 291 294 299 302 302 300 297 299
136 127 134 140 142 149 155 158 157 156 160 160 158 161 165 171 179 184 183 176 172 169 166 165 167 170 175 177 177 178 178 181 179 173 167 160 159 156 147 146 152 164 181 191 195 191 176 186 218 252 276 288 293 293 296 299 303 307 309 310 308 305 307
123 117 120 128 135 141 147 150 150 151 156 156 156 161 167 173 180 183 179 173 172 172 171 173 176 179 182 185 188 188 187 186 181 179 179 177 178 174 159 154 160 168 179 184 184 185 191 220 258 280 293 304 311 313 318 318 316 315 315 314 313 311 312
127 129 130 134 138 139 144 148 147 150 154 155 160 169 173 176 180 180 178 176 176 178 180 183 186 187 190 193 195 197 197 193 188 188 189 186 185 184 176 170 168 170 178 188 200 212 214 240 9 38 14 359 342 333 334 331 326 322 319 314 313 312 312
139 141 142 146 147 146 150 152 149 150 155 162 169 174 177 178 180 181 181 182 184 186 189 192 194 195 197 200 203 206 206 201 197 195 193 190 188 183 179 175 171 177 192 196 190 167 104 67 41 4 347 340 335 332 330 327 323 318 316 316 316 315 315
148 148 148 149 145 145 150 154 157 159 163 170 174 177 180 182 183 185 187 189 191 194 196 197 199 202 205 208 210 211 210 206 203 200 197 198 197 187 177 174 175 182 179 156 130 104 71 8 335 331 333 334 331 327 325 323 322 322 324 326 326 325 325
146 145 145 145 146 151 156 158 163 164 169 174 176 181 185 186 189 193 194 195 197 199 201 202 204 209 213 213 212 212 210 207 206 205 203 204 204 194 185 178 175 171 160 158 174 250 293 310 318 322 324 324 323 324 327 329 330 332 333 332 330 328 326
151 151 152 154 156 160 161 164 167 168 174 177 177 184 190 192 195 199 200 201 202 203 206 207 209 214 216 213 210 210 208 207 207 206 206 209 206 197 192 183 176 176 181 208 245 259 271 290 311 321 323 323 327 332 333 334 334 336 335 331 328 325 323
160 160 160 162 166 169 169 170 170 171 175 177 181 189 193 196 200 203 203 203 204 207 210 211 213 214 213 210 210 211 209 208 211 210 210 212 209 203 202 195 188 194 211 231 224 222 256 306 326 330 331 333 338 340 338 338 337 335 332 326 323 322 321
165 163 165 167 169 172 171 169 169 172 176 182 189 194 195 200 204 205 204 205 207 209 211 213 212 211 210 211 214 216 213 211 212 213 213 216 213 208 205 197 199 214 215 207 203 212 318 342 340 341 344 347 349 347 343 343 342 338 333 327 324 322 320
170 167 169 169 171 174 173 172 171 176 183 188 193 196 199 203 205 204 205 207 208 210 211 212 211 210 213 217 220 220 218 220 220 217 217 218 213 208 204 201 208 214 207 208 214 341 354 349 348 355 360 357 353 348 345 346 344 340 333 326 322 320 318
171 175 173 169 175 179 177 178 179 182 189 192 195 199 203 204 204 205 206 207 208 210 211 212 212 213 217 221 223 223 226 230 228 223 225 222 213 210 214 221 231 226 220 223 281 4 353 352 358 6 4 355 351 348 347 346 341 332 325 319 318 317 315
176 178 175 172 179 183 181 179 181 187 193 196 199 202 205 206 207 208 207 207 209 211 212 214 215 215 218 218 215 220 230 235 230 228 228 219 202 189 223 336 310 274 253 249 19 356 355 360 0 360 354 347 346 342 337 335 328 320 316 315 316 316 316
183 176 177 179 180 186 185 176 176 187 196 201 203 204 206 209 209 208 209 209 209 212 215 216 214 211 207 203 209 219 223 223 222 218 212 200 174 157 22 338 307 260 255 323 355 354 360 349 327 330 332 330 330 328 322 318 314 312 312 313 314 315 317
185 182 183 182 179 184 185 181 184 191 196 201 203 204 208 210 209 209 210 209 211 214 214 210 203 196 199 210 219 221 218 214 216 210 195 172 150 235 307 310 275 241 269 329 350 346 324 300 303 310 313 313 313 310 308 308 310 312 313 314 315 316 317
182 183 185 184 185 188 188 190 193 195 196 197 200 206 210 209 208 208 208 209 213 212 205 198 192 194 207 214 202 176 175 186 205 208 196 200 246 266 282 274 235 236 281 312 308 297 290 291 298 304 307 306 302 301 306 312 316 316 316 319 322 321 319
185 184 184 181 181 184 188 191 193 195 196 193 196 206 209 208 208 206 204 209 209 199 193 191 181 184 206 207 165 158 188 200 205 224 246 260 262 262 259 225 216 246 279 273 279 288 292 298 302 303 304 303 302 308 315 319 320 318 318 321 322 318 315
170 170 176 180 180 181 184 185 183 186 191 189 190 199 204 204 204 201 202 208 204 194 186 170 158 185 213 207 191 199 213 216 219 241 259 263 256 239 216 214 233 260 271 279 289 295 300 306 308 308 309 311 318 325 325 321 319 317 316 316 313 310 308
157 154 159 170 178 179 175 173 171 172 177 183 186 189 193 194 192 194 202 203 196 181 156 143 165 215 219 207 204 211 221 233 244 250 243 235 223 205 209 233 256 268 280 290 297 302 310 318 322 328 334 336 334 329 322 318 317 315 313 313 311 307 304
141 146 149 157 164 163 156 155 158 159 162 172 177 179 182 181 180 184 186 177 162 145 139 143 183 220 214 211 220 224 224 225 215 204 210 210 202 209 230 256 272 280 289 298 306 318 332 340 343 346 348 342 332 324 320 320 319 317 318 319 319 317 309
123 126 132 140 146 147 141 134 134 139 142 153 166 173 178 176 172 166 155 145 141 146 145 142 157 189 196 204 202 178 167 169 168 177 196 198 204 233 261 274 277 285 307 331 337 341 345 350 353 350 340 331 327 325 324 324 323 324 326 326 326 325 319
121 117 121 124 128 136 133 124 122 127 132 141 153 162 170 172 164 150 141 141 151 152 145 127 120 141 157 161 152 147 150 154 162 183 199 205 228 252 259 241 200 34 4 344 341 346 352 356 353 343 334 331 330 328 330 332 333 333 332 330 327 323 319
110 110 112 114 122 133 131 121 116 118 123 134 143 151 163 166 155 142 137 142 148 143 134 125 125 132 138 143 147 148 148 159 185 208 215 222 229 208 168 129 37 3 341 334 343 349 350 351 349 345 341 338 336 338 341 341 339 336 335 333 327 324 322
102 106 107 110 118 126 125 119 116 115 118 128 138 145 153 155 146 138 135 137 137 134 131 130 132 137 141 145 151 159 174 195 211 212 196 179 169 155 121 30 2 350 340 343 349 348 347 349 350 348 342 337 338 341 344 344 341 339 339 338 333 330 329
97 103 107 110 115 120 121 118 116 114 114 119 130 140 144 146 142 135 132 134 135 134 134 135 138 144 149 154 162 172 182 183 171 159 151 144 135 96 33 18 16 20 11 358 353 351 350 348 345 342 339 337 338 340 342 346 348 347 345 343 338 335 333
97 102 107 113 120 124 123 118 114 114 113 113 122 133 137 138 135 131 130 133 135 136 137 137 140 143 143 142 142 142 145 145 142 141 139 128 99 48 37 49 46 29 11 2 5 2 355 348 345 343 341 338 339 342 346 352 355 353 350 346 341 338 337
102 103 108 116 123 125 122 117 116 116 114 113 118 125 129 130 129 128 130 132 135 138 138 136 137 136 133 132 131 131 133 136 136 137 134 120 103 86 68 54 38 25 18 20 14 3 355 352 351 349 347 345 347 350 352 354 357 355 350 346 343 342 340
107 109 112 117 120 122 120 118 118 116 114 115 120 122 123 125 126 128 131 133 140 144 138 134 134 134 133 133 132 130 130 132 134 139 133 118 107 80 55 41 36 32 26 20 11 3 1 2 3 1 360 359 1 0 357 355 353 350 346 343 343 343 340
114 113 115 116 117 117 117 117 117 115 113 117 122 123 123 124 127 132 136 142 147 144 138 135 136 135 134 133 130 129 130 132 133 131 118 98 71 44 32 28 26 22 14 12 11 8 9 13 13 7 3 4 6 5 0 355 348 343 341 340 341 342 340
122 119 119 119 117 114 113 115 117 116 116 120 124 126 126 127 130 136 142 145 146 143 139 138 136 134 134 132 129 128 124 120 120 114 95 67 38 23 14 7 8 10 14 16 14 9 10 15 11 1 358 1 1 357 353 350 345 341 341 341 341 342 342
120 121 122 122 121 119 119 121 121 120 122 125 127 127 128 130 135 140 143 144 144 142 140 137 134 134 134 129 123 119 112 111 110 91 59 41 33 27 13 6 8 12 17 20 15 8 9 10 1 356 356 357 355 352 349 347 346 344 343 343 343 343 344